Time,TemperatureF,DewpointF,PressureIn,WindDirection,WindDirectionDegrees,WindSpeedMPH,WindSpeedGustMPH,Humidity,HourlyPrecipIn,Conditions,Clouds,dailyrainin,SoftwareType,DateUTC
2013-02-18 00:22:00,16.0,-99.9,-100.00,NNE,15,0.0,6.0,-999,-99.99,,,-99.99,,2013-02-18 09:22:00,
2013-02-18 00:32:00,16.0,-99.9,-100.00,NNE,15,0.0,6.0,-999,-99.99,,,-99.99,,2013-02-18 09:32:00,
2013-02-18 00:42:00,16.0,-99.9,-100.00,NNE,15,0.0,6.0,-999,-99.99,,,-99.99,,2013-02-18 09:42:00,
2013-02-18 00:52:00,16.0,-99.9,-100.00,NNE,15,0.0,6.0,-999,-99.99,,,-99.99,,2013-02-18 09:52:00,
2013-02-18 00:54:00,16.0,-99.9,-100.00,NW,317,3.0,10.0,-999,-99.99,,,-99.99,,2013-02-18 09:54:00,
2013-02-18 01:22:00,16.0,-99.9,-100.00,NW,317,3.0,10.0,-999,-99.99,,,-99.99,,2013-02-18 10:22:00,
2013-02-18 01:32:00,16.0,-99.9,-100.00,NW,317,3.0,10.0,-999,-99.99,,,-99.99,,2013-02-18 10:32:00,
2013-02-18 01:43:00,16.0,-99.9,-100.00,NW,317,3.0,10.0,-999,-99.99,,,-99.99,,2013-02-18 10:43:00,
2013-02-18 01:54:00,16.0,-99.9,-100.00,NNW,336,5.0,8.0,-999,-99.99,,,-99.99,,2013-02-18 10:54:00,
2013-02-18 02:22:00,16.0,-99.9,-100.00,NNW,336,5.0,8.0,-999,-99.99,,,-99.99,,2013-02-18 11:22:00,
2013-02-18 02:33:00,16.0,-99.9,-100.00,NNW,336,5.0,8.0,-999,-99.99,,,-99.99,,2013-02-18 11:33:00,
2013-02-18 02:43:00,16.0,-99.9,-100.00,NNW,336,5.0,8.0,-999,-99.99,,,-99.99,,2013-02-18 11:43:00,
2013-02-18 02:54:00,15.0,-99.9,-100.00,North,352,0.0,6.0,-999,-99.99,,,-99.99,,2013-02-18 11:54:00,
2013-02-18 03:22:00,15.0,-99.9,-100.00,North,352,0.0,6.0,-999,-99.99,,,-99.99,,2013-02-18 12:22:00,
2013-02-18 03:32:00,15.0,-99.9,-100.00,North,352,0.0,6.0,-999,-99.99,,,-99.99,,2013-02-18 12:32:00,
2013-02-18 03:42:00,15.0,-99.9,-100.00,North,352,0.0,6.0,-999,-99.99,,,-99.99,,2013-02-18 12:42:00,
2013-02-18 04:23:00,14.0,-99.9,-100.00,NNE,12,0.0,0.0,-999,-99.99,,,-99.99,,2013-02-18 13:23:00,
2013-02-18 04:33:00,14.0,-99.9,-100.00,NNE,12,0.0,0.0,-999,-99.99,,,-99.99,,2013-02-18 13:33:00,
2013-02-18 04:43:00,14.0,-99.9,-100.00,NNE,12,0.0,0.0,-999,-99.99,,,-99.99,,2013-02-18 13:43:00,
2013-02-18 04:53:00,14.0,-99.9,-100.00,NNE,12,0.0,0.0,-999,-99.99,,,-99.99,,2013-02-18 13:53:00,
2013-02-18 04:54:00,13.0,-99.9,-100.00,North,352,0.0,0.0,-999,-99.99,,,-99.99,,2013-02-18 13:54:00,
2013-02-18 05:22:00,13.0,-99.9,-100.00,North,352,0.0,0.0,-999,-99.99,,,-99.99,,2013-02-18 14:22:00,
2013-02-18 05:42:00,13.0,-99.9,-100.00,North,352,0.0,0.0,-999,-99.99,,,-99.99,,2013-02-18 14:42:00,
2013-02-18 06:22:00,13.0,-99.9,-100.00,North,352,0.0,0.0,-999,-99.99,,,-99.99,,2013-02-18 15:22:00,
2013-02-18 06:32:00,13.0,-99.9,-100.00,North,352,0.0,0.0,-999,-99.99,,,-99.99,,2013-02-18 15:32:00,
2013-02-18 06:42:00,13.0,-99.9,-100.00,North,352,0.0,0.0,-999,-99.99,,,-99.99,,2013-02-18 15:42:00,
2013-02-18 06:53:00,13.0,-99.9,-100.00,North,352,0.0,0.0,-999,-99.99,,,-99.99,,2013-02-18 15:53:00,
2013-02-18 07:23:00,13.0,-99.9,-100.00,North,352,0.0,0.0,-999,-99.99,,,-99.99,,2013-02-18 16:23:00,
2013-02-18 07:43:00,13.0,-99.9,-100.00,North,352,0.0,0.0,-999,-99.99,,,-99.99,,2013-02-18 16:43:00,
2013-02-18 07:54:00,13.0,-99.9,-100.00,North,352,0.0,0.0,-999,-99.99,,,-99.99,,2013-02-18 16:54:00,
2013-02-18 08:23:00,14.0,-99.9,-100.00,North,352,0.0,0.0,-999,-99.99,,,-99.99,,2013-02-18 17:23:00,
2013-02-18 08:33:00,14.0,-99.9,-100.00,North,352,0.0,0.0,-999,-99.99,,,-99.99,,2013-02-18 17:33:00,
2013-02-18 08:43:00,14.0,-99.9,-100.00,North,352,0.0,0.0,-999,-99.99,,,-99.99,,2013-02-18 17:43:00,
2013-02-18 08:53:00,14.0,-99.9,-100.00,North,352,0.0,0.0,-999,-99.99,,,-99.99,,2013-02-18 17:53:00,
2013-02-18 09:23:00,13.0,-99.9,-100.00,North,352,0.0,0.0,-999,-99.99,,,-99.99,,2013-02-18 18:23:00,
2013-02-18 09:33:00,13.0,-99.9,-100.00,North,352,0.0,0.0,-999,-99.99,,,-99.99,,2013-02-18 18:33:00,
2013-02-18 09:43:00,13.0,-99.9,-100.00,North,352,0.0,0.0,-999,-99.99,,,-99.99,,2013-02-18 18:43:00,
2013-02-18 09:53:00,13.0,-99.9,-100.00,North,352,0.0,0.0,-999,-99.99,,,-99.99,,2013-02-18 18:53:00,
2013-02-18 10:23:00,14.0,-99.9,-100.00,NNE,19,0.0,0.0,-999,-99.99,,,-99.99,,2013-02-18 19:23:00,
2013-02-18 10:34:00,14.0,-99.9,-100.00,NNE,19,0.0,0.0,-999,-99.99,,,-99.99,,2013-02-18 19:34:00,
2013-02-18 10:43:00,14.0,-99.9,-100.00,NNE,19,0.0,0.0,-999,-99.99,,,-99.99,,2013-02-18 19:43:00,
2013-02-18 10:53:00,14.0,-99.9,-100.00,NNE,19,0.0,0.0,-999,-99.99,,,-99.99,,2013-02-18 19:53:00,
2013-02-18 11:24:00,15.0,-99.9,-100.00,NNW,334,0.0,2.0,-999,-99.99,,,-99.99,,2013-02-18 20:24:00,
2013-02-18 11:34:00,15.0,-99.9,-100.00,NNW,334,0.0,2.0,-999,-99.99,,,-99.99,,2013-02-18 20:34:00,
2013-02-18 11:43:00,15.0,-99.9,-100.00,NNW,334,0.0,2.0,-999,-99.99,,,-99.99,,2013-02-18 20:43:00,
2013-02-18 11:53:00,15.0,-99.9,-100.00,NNW,334,0.0,2.0,-999,-99.99,,,-99.99,,2013-02-18 20:53:00,
2013-02-18 12:23:00,16.0,-99.9,-100.00,NNW,341,0.0,0.0,-999,-99.99,,,-99.99,,2013-02-18 21:23:00,
2013-02-18 12:33:00,16.0,-99.9,-100.00,NNW,341,0.0,0.0,-999,-99.99,,,-99.99,,2013-02-18 21:33:00,
2013-02-18 12:43:00,16.0,-99.9,-100.00,NNW,341,0.0,0.0,-999,-99.99,,,-99.99,,2013-02-18 21:43:00,
2013-02-18 13:13:00,16.0,-99.9,-100.00,NW,310,4.0,5.0,-999,-99.99,,,-99.99,,2013-02-18 22:13:00,
2013-02-18 13:23:00,16.0,-99.9,-100.00,NW,310,4.0,5.0,-999,-99.99,,,-99.99,,2013-02-18 22:23:00,
2013-02-18 13:34:00,16.0,-99.9,-100.00,NW,310,4.0,5.0,-999,-99.99,,,-99.99,,2013-02-18 22:34:00,
2013-02-18 13:44:00,16.0,-99.9,-100.00,NW,310,4.0,5.0,-999,-99.99,,,-99.99,,2013-02-18 22:44:00,
2013-02-18 13:54:00,16.0,-99.9,-100.00,NW,310,4.0,5.0,-999,-99.99,,,-99.99,,2013-02-18 22:54:00,
2013-02-18 14:23:00,17.0,-99.9,-100.00,North,0,5.0,6.0,-999,-99.99,,,-99.99,,2013-02-18 23:23:00,
2013-02-18 14:34:00,17.0,-99.9,-100.00,North,0,5.0,6.0,-999,-99.99,,,-99.99,,2013-02-18 23:34:00,
2013-02-18 14:44:00,17.0,-99.9,-100.00,North,0,5.0,6.0,-999,-99.99,,,-99.99,,2013-02-18 23:44:00,
2013-02-18 14:54:00,17.0,-99.9,-100.00,North,0,5.0,6.0,-999,-99.99,,,-99.99,,2013-02-18 23:54:00,
2013-02-18 14:55:00,17.0,-99.9,-100.00,NW,324,4.0,6.0,-999,-99.99,,,-99.99,,2013-02-18 23:55:00,
2013-02-18 15:23:00,17.0,-99.9,-100.00,NW,324,4.0,6.0,-999,-99.99,,,-99.99,,2013-02-19 00:23:00,
2013-02-18 15:36:00,17.0,-99.9,-100.00,NW,324,4.0,6.0,-999,-99.99,,,-99.99,,2013-02-19 00:36:00,
2013-02-18 15:44:00,17.0,-99.9,-100.00,NW,324,4.0,6.0,-999,-99.99,,,-99.99,,2013-02-19 00:44:00,
2013-02-18 15:55:00,17.0,-99.9,-100.00,North,350,0.0,3.0,-999,-99.99,,,-99.99,,2013-02-19 00:55:00,
2013-02-18 16:25:00,17.0,-99.9,-100.00,North,350,0.0,3.0,-999,-99.99,,,-99.99,,2013-02-19 01:25:00,
2013-02-18 16:35:00,17.0,-99.9,-100.00,North,350,0.0,3.0,-999,-99.99,,,-99.99,,2013-02-19 01:35:00,
2013-02-18 16:46:00,17.0,-99.9,-100.00,North,350,0.0,3.0,-999,-99.99,,,-99.99,,2013-02-19 01:46:00,
2013-02-18 16:54:00,15.0,-99.9,-100.00,North,355,0.0,0.0,-999,-99.99,,,-99.99,,2013-02-19 01:54:00,
2013-02-18 17:23:00,15.0,-99.9,-100.00,North,355,0.0,0.0,-999,-99.99,,,-99.99,,2013-02-19 02:23:00,
2013-02-18 17:36:00,15.0,-99.9,-100.00,North,355,0.0,0.0,-999,-99.99,,,-99.99,,2013-02-19 02:36:00,
2013-02-18 17:44:00,15.0,-99.9,-100.00,North,355,0.0,0.0,-999,-99.99,,,-99.99,,2013-02-19 02:44:00,
2013-02-18 17:54:00,11.0,-99.9,-100.00,North,355,0.0,0.0,-999,-99.99,,,-99.99,,2013-02-19 02:54:00,
2013-02-18 18:25:00,11.0,-99.9,-100.00,North,355,0.0,0.0,-999,-99.99,,,-99.99,,2013-02-19 03:25:00,
2013-02-18 18:36:00,11.0,-99.9,-100.00,North,355,0.0,0.0,-999,-99.99,,,-99.99,,2013-02-19 03:36:00,
2013-02-18 18:46:00,11.0,-99.9,-100.00,North,355,0.0,0.0,-999,-99.99,,,-99.99,,2013-02-19 03:46:00,
2013-02-18 18:54:00,4.0,-99.9,-100.00,North,355,0.0,0.0,-999,-99.99,,,-99.99,,2013-02-19 03:54:00,
2013-02-18 19:24:00,4.0,-99.9,-100.00,North,355,0.0,0.0,-999,-99.99,,,-99.99,,2013-02-19 04:24:00,
2013-02-18 19:34:00,4.0,-99.9,-100.00,North,355,0.0,0.0,-999,-99.99,,,-99.99,,2013-02-19 04:34:00,
2013-02-18 19:45:00,4.0,-99.9,-100.00,North,355,0.0,0.0,-999,-99.99,,,-99.99,,2013-02-19 04:45:00,
2013-02-18 20:23:00,-1.0,-99.9,-100.00,North,355,0.0,0.0,-999,-99.99,,,-99.99,,2013-02-19 05:23:00,
2013-02-18 21:22:00,-4.0,-99.9,-100.00,North,355,0.0,0.0,-999,-99.99,,,-99.99,,2013-02-19 06:22:00,
2013-02-18 22:22:00,-6.0,-99.9,-100.00,North,355,0.0,0.0,-999,-99.99,,,-99.99,,2013-02-19 07:22:00,
2013-02-18 23:22:00,-5.0,-99.9,-100.00,North,355,0.0,0.0,-999,-99.99,,,-99.99,,2013-02-19 08:22:00,